Regional Weather Roundup
Issued by NWS Pendleton, OR

Home | Current Version | Previous Version | Text Only | Print | Product List | Glossary On
Versions: 1 2 3 4 5 6 7 8 9 10 11 12 13 14 15 16 17 18 19 20 21 22 23 24 25 26 27 28 29 30 31 32 33 34 35 36 37 38 39 40 41 42 43 44 45 46 47 48 49 50
368
ASUS46 KPDT 180325
RWRPDT
PENDLETON REGIONAL WEATHER ROUNDUP
NATIONAL WEATHER SERVICE PENDLETON OREGON
800 PM PDT THU AUG 17 2017

NOTE: FAIR INDICATES FEW OR NO CLOUDS BELOW 12,000 FEET WITH NO
SIGNIFICANT WEATHER AND/OR OBSTRUCTIONS TO VISIBILITY.

# INDICATES UNOFFICIAL STATION AND DATA

WAZ520-180410-
EAST SLOPES OF WASHINGTON CASCADES

CITY            SKY/WX      TMP DP  RH  WIND    PRES   REMARKS
#BULLFROG       N/A         70  49  47  W12     N/A
#CLE ELUM HS    N/A         68  50  53  SW7     30.02R
#CLE ELUM LAKE  N/A         66  50  56  CALM    30.17S
#EASTON DOT     N/A         64  52  65  N1      N/A
#ELK HTS DOT    N/A         70  70  100 W6      N/A
#GLENWOOD       N/A         71  56  59  SE1     29.97R
#NELSON 3SW     N/A         67  40  37  CALM    30.19R
#NILE           N/A         72  41  33  W7      29.27R
#TROUT LAKE 1NE N/A         71  53  53  CALM    29.98S
#TROUT LAKE 1E  N/A         73  51  46  NW2     30.09S
$$

WAZ521-180410-
SIMCOE HIGHLANDS

CITY            SKY/WX      TMP DP  RH  WIND    PRES   REMARKS
#BICKLETON HS   N/A         73  54  51  SW7     29.99R
#CENTERVILLE 1SWN/A         72  51  48  W13     29.93S
#GOLDENDALE 1NE N/A         74  32  21  SW3     N/A
#GOLDENDALE 4W  N/A         76  23  14  W10     30.07R
#GOODNOE HILLS  N/A         76  52  43  W13     N/A
#PITT 4SE       N/A         68  50  53  W8      30.01S
$$

WAZ026-180410-
KITTITAS VALLEY

CITY            SKY/WX      TMP DP  RH  WIND    PRES   REMARKS
#ELLENSBURG CWU N/A         74  49  41  N10     29.89R
#ELLENSBURG 3NE N/A         72  49  44  N9      28.10R
#ELLENSBURG 1E  N/A         74  47  38  N3      29.98R
#KITTITAS 3S    N/A         69  42  37  CALM    29.92R
#MANASTASH RDG  N/A         72  72  100 NW9     N/A
#ROCKY CYN DOT  N/A         75  42  31  NW17G25 N/A
#RYEGRASS DOT   N/A         72  42  34  SW20G26 N/A
$$

WAZ027-180410-
YAKIMA VALLEY

CITY            SKY/WX      TMP DP  RH  WIND    PRES   REMARKS
#DONALD 2NE     N/A         80  18  10  N2      28.83R
#GRANDVIEW      N/A         76  55  48  CALM    29.93S
#MABTON         N/A         82  52  35  CALM    29.94S
#MOXEE 2E       N/A         76  N/A N/A W3      29.92R
#NACHES 2SW     N/A         75  39  27  W12     30.02S
#OUTLOOK DOT    N/A         81  46  29  CALM    29.93S
#PARKER DOT     N/A         79  51  38  S3      29.97S
#TERRACE HTS    N/A         80  35  20  N3      29.89R
#TOPPENISH      N/A         83  56  40  CALM    29.84S
#I82 S UMTANUM RN/A         81  45  28  W6      N/A
#UNION GAP DOT  N/A         83  42  24  NW2     30.00R
#W YAKIMA       N/A         76  38  25  N3      29.93R
#WHITE SWAN 5E  N/A         81  54  39  CALM    29.93S
#WILEY CITY 3W  N/A         77  35  22  CALM    29.97S
#ZILLAH DOT     N/A         80  57  45  N3      N/A
$$

WAZ028-180410-
LOWER COLUMBIA BASIN...WASHINGTON

CITY            SKY/WX      TMP DP  RH  WIND    PRES   REMARKS
PROSSER AWOS    N/A         77  52  42  VRB3    29.98S
#BENTON CITY    N/A         80  50  35  CALM    29.83S
#CONNELL 5N     N/A         77  48  36  CALM    29.93S
#CONNELL 5NW    N/A         79  50  36  CALM    29.88S
#ELTOPIA 6NW    N/A         79  57  47  CALM    28.94S
#KAHLOTUS       N/A         80  43  27  NW7     29.92S
#KENNEWICK 3S   N/A         80  50  35  S1      29.93S
#PATERSON       N/A         81  47  30  E1      29.91S
#PROSSER DOT    N/A         84  43  24  CALM    29.97S
#SAGEMOOR 2W    N/A         80  56  44  CALM    29.78S
#TOUCHET 2S     N/A         77  55  47  CALM    29.91R
#WEST PASCO     N/A         79  54  42  CALM    29.93S
$$

WAZ029-180410-
FOOTHILLS OF THE BLUES...WASHINGTON

CITY            SKY/WX      TMP DP  RH  WIND    PRES   REMARKS
#CLYDE 6NW      N/A         75  45  34  CALM    29.92R
#DAYTON SCHOOL  N/A         78  39  25  CALM    30.01S
#DELANEY DOT    N/A         78  38  24  S1      29.99R
#LOWDEN 2SE     N/A         79  58  49  CALM    29.92R
#PLEASANT VIEW 1N/A         75  43  32  CALM    29.96S
#PRESCOTT       N/A         76  52  43  CALM    29.92R
#WHITMAN COLLEGEN/A         84  48  29  CALM    29.97S
#WAITSBURG 5S   N/A         77  41  28  CALM    30.02R
#WAITSBURG 6SSE N/A         67  45  45  E3      29.99R
#WAITSBURG 8N   N/A         70  N/A N/A CALM    29.95S
#WALLA WALLA 5E N/A         74  45  35  E2      N/A
#WHITMAN MISSIONN/A         81  56  42  CALM    29.93S
$$

WAZ030-180410-
BLUE MOUNTAINS...WASHINGTON

CITY            SKY/WX      TMP DP  RH  WIND    PRES   REMARKS
#DIXIE 5SE      N/A         72  42  34  W5      30.02S
$$

ORZ009-041-WAZ024-180410-
COLUMBIA RIVER GORGE

CITY            SKY/WX      TMP DP  RH  WIND    PRES   REMARKS
#CELILO DOT     N/A         82  53  37  SW8     N/A
#LYLE           N/A         77  55  47  NW15G28 30.00S
#MARYHILL       N/A         77  48  36  N18G29  N/A
#MURDOCK        N/A         78  52  40  NW17G31 29.94R
#RUFUS DOT      N/A         83  N/A N/A W16     N/A
#SMITHVILLE     N/A         77  50  39  N12     29.99R

$$

ORZ510-180410-
NORTH CENTRAL OREGON

CITY            SKY/WX      TMP DP  RH  WIND    PRES   REMARKS
#ANTELOPE       N/A         77  36  23  CALM    29.81R
#CHENOWITH 1W   N/A         71  47  42  W38G45  N/A
#COW CYN RST AREN/A         77  26  15  NW7     N/A
#DUFUR          N/A         76  34  22  CALM    29.95R
#DUFUR 9E       N/A         71  40  32  NW14    30.03S
#GRASS VALLEY 1SN/A         72  38  29  NW10    30.09S
#KENT DOT       N/A         74  31  20  NW8     N/A
#MAUPIN SCHOOL  N/A         80  44  28  W2      30.06R
#SHANIKO 5WSW   N/A         76  32  20  N12     N/A
#SHANIKO 4NW    N/A         72  32  23  N10     30.14R
#TYGH VALLEY 2NEN/A         79  40  25  CALM    29.96R
#WAPANITIA AIRPON/A         74  39  28  W8      29.98R
#WASCO 5NE      N/A         73  49  43  W7      29.95R
$$

ORZ511-180410-
CENTRAL OREGON

CITY            SKY/WX      TMP DP  RH  WIND    PRES   REMARKS
#ASHWOOD SCHOOL N/A         78  31  18  W1      30.04R
#BEND 1SW       N/A         71  42  35  CALM    N/A
#BEND-AWBREY    N/A         74  44  34  E1      29.97R
#BEND-KIM LN    N/A         77  46  33  N1      29.91S
#CULVER         N/A         73  44  35  E3      29.89R
#CULVER 8W      N/A         79  39  24  CALM    30.10R
#LAKE BILLY CHINN/A         79  N/A N/A N3      30.02R
#MADRAS 4S      N/A         76  20  12  N5      N/A
#POWELL BUTTE   N/A         77  21  12  N1      30.08R
#PRINEVILLE     N/A         77  33  20  W2      30.04R
#PRINEVILLE 3N  N/A         73  35  25  NW13    29.96R
#WARM SPRINGS   N/A         79  41  26  CALM    29.86R

$$


ORZ509-180410-
EAST SLOPES OF OREGON CASCADES

CITY            SKY/WX      TMP DP  RH  WIND    PRES   REMARKS
SISTERS AWOS    N/A         77  46  33  W13     30.09R
#CAMP SHERMAN   N/A         74  46  37  CALM    30.07R
#LA PINE 4NW    N/A         71  43  36  CALM    30.01S
#LAVA BUTTE DOT N/A         74  36  25  CALM    N/A
#SISTERS ODOT   N/A         78  44  30  W6      N/A
#SISTERS 3N     N/A         74  43  33  NW2     30.11S
#SUNRIVER       N/A         74  43  33  CALM    30.17R
#TUMALO 3W      N/A         74  43  33  N2      29.84R
#WANOGA BUTTE D N/A         68  37  32  N2      N/A

$$

ORZ044-180410-
LOWER COLUMBIA BASIN...OREGON

CITY            SKY/WX      TMP DP  RH  WIND    PRES   REMARKS
#BOARDMAN SCHOOLN/A         82  55  40  CALM    29.93R
#ECHO 8SW       N/A         78  49  36  W1      29.98R
#I-84 EX 198 DOTN/A         82  51  34  W8      N/A
#IONE SCHOOL    N/A         79  40  25  SW1     29.95R
#UMATILLA       N/A         86  49  28  CALM    29.85S
$$

ORZ507-180410-
NORTHERN FOOTHILLS OF THE BLUES

CITY            SKY/WX      TMP DP  RH  WIND    PRES   REMARKS
#ADAMS 3WNW     N/A         74  35  24  CALM    29.93R
#ATHENA         N/A         75  38  26  CALM    29.97S
#CAYUSE         N/A         80  43  27  CALM    29.93R
#HELIX SCHOOL   N/A         77  39  25  CALM    29.95R
#HELIX 3N       N/A         77  41  28  W3      30.00S
#HOLDMAN 5SE    N/A         75  45  34  CALM    30.00R
#HOLDMAN 6E     N/A         78  41  27  CALM    29.75S
#M-F GROVE ELEM N/A         78  36  22  CALM    29.97R
#M-FREEWATER 5SEN/A         77  45  32  CALM    30.00R
#PENDLETON DNTN N/A         79  40  25  CALM    29.98S
#PDT AQUATIC CTRN/A         77  37  24  CALM    29.99S
#PDT SUNRIDGE   N/A         83  41  23  CALM    30.01R
#PENDLETON 7NW  N/A         81  53  38  CALM    29.85F
#PILOT ROCK 1S  N/A         77  38  24  CALM    30.04R
#PILOT ROCK     N/A         75  41  29  CALM    29.95S
#TUTUILLA       N/A         77  44  31  CALM    30.05R
#UMAPINE 2E     N/A         71  61  71  CALM    29.94R
#WESTON SCHOOL  N/A         75  34  22  CALM    29.91R

$$

ORZ508-180410-
SOUTHERN FOOTHILLS OF THE BLUES

CITY            SKY/WX      TMP DP  RH  WIND    PRES   REMARKS
LEXINGTON       CLEAR       77  34  21  W7      30.06R
#AJAX           N/A         75  36  24  S7      30.22R
#CONDON 5W      N/A         69  37  31  CALM    30.10R
#HEPPNER EOC    N/A         77  35  22  W7      29.90R
#HEPPNER 4NE    N/A         72  33  24  SW2     29.96R
#LEXINGTON 2SE  N/A         78  40  26  CALM    30.01R
#MIKKALO        N/A         76  40  27  W8      30.15S
#OLEX 4N        N/A         78  46  32  W14     29.98R
#RUGGS 5NE      N/A         74   3   6  W3      30.30R
#RUGGS 2SW      N/A         71  35  27  W2      29.97R

$$

ORZ502-503-180410-
BLUE MOUNTAINS

CITY            SKY/WX      TMP DP  RH  WIND    PRES   REMARKS
#BATTLE MTN DOT N/A         70  36  29  N2      N/A
#GRANITE        N/A         68  23  18  CALM    29.88R
#HEPPNER 15SE   N/A         66  30  26  SE1     29.93R
#LADD CYN SMT   N/A         75  38  26  NW6     N/A
#LADD CREEK ODOTN/A         73  42  33  W1      N/A
#LONG CREEK HS  N/A         73  34  24  CALM    N/A
#N POWDER DOT   N/A         75  46  36  N10     N/A
#PIKES PEAK     N/A         72  41  33  CALM    27.99S
#SUMMERVILLE 5NWN/A         68  41  37  N3      30.07R
#TOLLGATE       N/A         61  41  48  CALM    30.04R
#TROY SCHOOL    N/A         82  52  35  CALM    29.76R
#UKIAH          N/A         72  38  29  N2      29.90R
#WESTON 4E      N/A         72  38  29  CALM    29.93S
$$

ORZ505-180410-
JOHN DAY BASIN

CITY            SKY/WX      TMP DP  RH  WIND    PRES   REMARKS
#JOHN DAY KJDY  N/A         82  N/A N/A W3      29.98F
#ANTELOPE 9ESE  N/A         85  39  20  NE5     N/A
#DAYVILLE SCHOOLN/A         84  26  12  N1      30.01R
#MITCHELL       N/A         80  40  24  CALM    30.25R
#MITCHELL 8NW   N/A         78  30  17  NW1     29.99R
#MONUMENT HS    N/A         83  29  14  E5      29.98R
#MT. VERNON 5SE N/A         75  29  18  S1      30.09R
#SPRAY SCHOOL   N/A         80  N/A N/A CALM    N/A
$$

ORZ506-180410-
OCHOCO AND JOHN DAY HIGHLANDS

CITY            SKY/WX      TMP DP  RH  WIND    PRES   REMARKS
#HORSE RIDGE DO N/A         77  29  17  NW7     N/A
#PAULINA ODOT   N/A         80  23  12  N6      N/A
#PINE MTN OBS   N/A         65  34  31  N12     N/A
#SENECA         N/A         73  N/A N/A CALM    N/A
#SENECA 9NW     N/A         70  29  22  CALM    29.95R
$$

ORZ049-180410-
GRANDE RONDE VALLEY

CITY            SKY/WX      TMP DP  RH  WIND    PRES   REMARKS
#COVE           N/A         75  47  37  CALM    30.10R
#COVE SCHOOL    N/A         75  45  34  CALM    30.08R
#COVE 6NW       N/A         73  44  35  W1      29.93R
#ELGIN 3N       N/A         74  34  23  CALM    30.05R
#ELGIN 1E       N/A         76  41  28  CALM    N/A
#IMBLER SCHOOL  N/A         73  41  31  CALM    30.03R
#ISLAND CITY 4N N/A         75  58  56  CALM    30.11S
#LA GRANDE-LEFFEN/A         74  39  28  NW2     27.11R
#UNION 1S       N/A         77  43  30  N2      29.94R
$$

ORZ050-180410-
WALLOWA COUNTY

CITY            SKY/WX      TMP DP  RH  WIND    PRES   REMARKS
JOSEPH AIRPORT  CLEAR       66  36  33  CALM    30.16R
#ENTERPRISE HS  N/A         72  47  41  CALM    29.84R
#IMNAHA 10S     N/A         76  38  25  SW3     30.03R
#JOSEPH         N/A         67  39  36  CALM    30.03R
#JOSEPH 3N      N/A         72  41  33  S3      30.15R
#JOSEPH 3W      N/A         63  45  52  SW3     30.01R
#LOSTINE        N/A         65  44  46  CALM    29.77R
#LOSTINE 3SE    N/A         71  38  30  CALM    30.16R
#MT HOWARD 8000 N/A         58  36  44  CALM    30.40F
#PROMISE 1S     N/A         73  41  31  W1      30.03R
#WALLOWA LAKE   N/A         60  45  58  S1      30.19R
#WALLOWA SCHOOL N/A         74  41  30  CALM    30.03R



$$



USA.gov is the U.S. government's official web portal to all federal, state and local government web resources and services.